QPF
0.01 0.01 0.01 0.01 0.01 0.01 0.01 0.01 0.02 0.02 0.02 0.01 0.01 0.01 0.01 0.01 0.00 0.00 0.01 0.01 0.02 0.02 0.01 0.01 0.01 0.01 0.01 0.01 0.01 0.01 0.01 0.01 0.01 0.00 0.00 0.00 0.01 0.02 0.03 0.02 0.02 0.01 0.02 0.02
0.01 0.01 0.01 0.01 0.01 0.00 0.01 0.01 0.02 0.02 0.01 0.01 0.01 0.01 0.01 0.00 0.00 0.00 0.01 0.01 0.01 0.01 0.01 0.01 0.01 0.01 0.01 0.01 0.01 0.01 0.01 0.00 0.01 0.01 0.01 0.01 0.01 0.01 0.02 0.01 0.01 0.01 0.01 0.01
0.00 0.01 0.01 0.01 0.01 0.01 0.01 0.01 0.02 0.02 0.02 0.01 0.00 0.00 0.01 0.01 0.01 0.01 0.01 0.01 0.01 0.01 0.01 0.01 0.01 0.01 0.02 0.02 0.02 0.02 0.02 0.01 0.01 0.01 0.01 0.00 0.00 0.01 0.02 0.01 0.01 0.00 0.01 0.01
0.00 0.00 0.00 0.01 0.01 0.02 0.01 0.01 0.01 0.01 0.02 0.01 0.01 0.00 0.01 0.01 0.01 0.01 0.01 0.01 0.01 0.01 0.01 0.01 0.01 0.01 0.01 0.02 0.02 0.02 0.02 0.02 0.01 0.01 0.01 0.01 0.00 0.01 0.02 0.01 0.01 0.01 0.01 0.00
0.00 0.00 0.00 0.00 0.01 0.01 0.01 0.01 0.02 0.01 0.01 0.01 0.01 0.01 0.01 0.01 0.01 0.02 0.01 0.01 0.01 0.01 0.01 0.01 0.00 0.00 0.01 0.01 0.01 0.01 0.01 0.01 0.01 0.01 0.01 0.01 0.01 0.01 0.01 0.01 0.01 0.00 0.00 0.01
0.01 0.01 0.00 0.01 0.01 0.01 0.00 0.01 0.01 0.01 0.01 0.01 0.00 0.01 0.01 0.01 0.01 0.01 0.01 0.01 0.01 0.01 0.01 0.01 0.00 0.00 0.01 0.01 0.01 0.01 0.02 0.02 0.02 0.01 0.01 0.01 0.01 0.01 0.01 0.00 0.00 0.00 0.00 0.00
0.00 0.00 0.00 0.00 0.01 0.01 0.00 0.02 0.03 0.01 0.01 0.00 0.00 0.01 0.01 0.01 0.01 0.01 0.01 0.01 0.01 0.01 0.01 0.01 0.00 0.00 0.00 0.01 0.01 0.02 0.03 0.03 0.02 0.02 0.01 0.01 0.01 0.01 0.01 0.01 0.01 0.01 0.01 0.01
0.00 0.00 0.00 0.00 0.00 0.00 0.00 0.01 0.02 0.01 0.01 0.00 0.00 0.01 0.01 0.00 0.00 0.00 0.01 0.01 0.01 0.01 0.01 0.01 0.01 0.01 0.01 0.01 0.02 0.03 0.04 0.04 0.03 0.02 0.01 0.01 0.01 0.01 0.01 0.01 0.01 0.01 0.01 0.01
0.00 0.00 0.00 0.01 0.00 0.00 0.00 0.01 0.01 0.01 0.01 0.01 0.00 0.00 0.00 0.00 0.00 0.00 0.00 0.01 0.01 0.01 0.01 0.01 0.01 0.01 0.01 0.01 0.02 0.02 0.03 0.03 0.03 0.02 0.02 0.02 0.01 0.01 0.01 0.01 0.01 0.01 0.01 0.02
0.00 0.00 0.00 0.00 0.01 0.01 0.01 0.01 0.01 0.01 0.01 0.01 0.00 0.00 0.00 0.00 0.00 0.00 0.00 0.00 0.01 0.01 0.01 0.01 0.01 0.01 0.00 0.01 0.01 0.02 0.02 0.02 0.02 0.02 0.02 0.02 0.02 0.01 0.01 0.01 0.01 0.01 0.01 0.01
0.00 0.00 0.00 0.00 0.00 0.00 0.00 0.01 0.01 0.01 0.01 0.01 0.00 0.00 0.00 0.00 0.00 0.00 0.00 0.00 0.01 0.01 0.01 0.01 0.01 0.01 0.01 0.01 0.02 0.02 0.01 0.01 0.01 0.02 0.03 0.03 0.02 0.01 0.01 0.00 0.00 0.01 0.01 0.01
0.00 0.00 0.00 0.00 0.00 0.00 0.00 0.00 0.01 0.01 0.01 0.01 0.00 0.00 0.00 0.00 0.00 0.00 0.00 0.00 0.00 0.01 0.01 0.01 0.01 0.02 0.02 0.02 0.02 0.02 0.01 0.01 0.01 0.02 0.03 0.03 0.03 0.02 0.01 0.01 0.00 0.01 0.01 0.01
0.01 0.00 0.00 0.00 0.00 0.00 0.00 0.00 0.00 0.00 0.00 0.01 0.01 0.00 0.00 0.00 0.00 0.00 0.00 0.00 0.00 0.00 0.01 0.01 0.01 0.02 0.03 0.03 0.02 0.01 0.01 0.01 0.01 0.02 0.03 0.02 0.02 0.02 0.01 0.01 0.01 0.01 0.01 0.01
0.01 0.01 0.00 0.00 0.00 0.00 0.00 0.00 0.00 0.00 0.00 0.00 0.00 0.00 0.00 0.00 0.00 0.00 0.00 0.00 0.00 0.00 0.00 0.01 0.02 0.01 0.02 0.02 0.02 0.01 0.01 0.01 0.02 0.02 0.03 0.02 0.03 0.03 0.02 0.01 0.01 0.01 0.01 0.02
0.01 0.01 0.01 0.00 0.00 0.00 0.00 0.00 0.00 0.00 0.00 0.00 0.00 0.00 0.00 0.00 0.00 0.00 0.00 0.00 0.00 0.00 0.00 0.01 0.01 0.01 0.01 0.01 0.02 0.02 0.01 0.01 0.02 0.02 0.02 0.02 0.02 0.03 0.03 0.02 0.01 0.01 0.01 0.01
0.01 0.01 0.01 0.01 0.00 0.00 0.00 0.00 0.00 0.00 0.00 0.00 0.00 0.00 0.00 0.00 0.00 0.00 0.01 0.00 0.00 0.00 0.00 0.00 0.01 0.01 0.01 0.01 0.02 0.02 0.02 0.02 0.02 0.01 0.01 0.02 0.02 0.02 0.02 0.02 0.02 0.02 0.01 0.01
0.01 0.01 0.01 0.01 0.01 0.00 0.00 0.00 0.01 0.01 0.00 0.00 0.00 0.00 0.00 0.00 0.00 0.00 0.01 0.01 0.00 0.01 0.00 0.00 0.00 0.01 0.01 0.01 0.01 0.02 0.02 0.02 0.02 0.02 0.02 0.02 0.03 0.03 0.02 0.02 0.01 0.01 0.01 0.01
0.01 0.01 0.00 0.01 0.01 0.01 0.01 0.00 0.00 0.00 0.00 0.00 0.00 0.00 0.00 0.00 0.00 0.01 0.01 0.01 0.01 0.00 0.00 0.00 0.00 0.00 0.01 0.01 0.01 0.02 0.02 0.02 0.01 0.01 0.01 0.02 0.03 0.03 0.04 0.03 0.02 0.02 0.01 0.01
0.01 0.01 0.00 0.01 0.01 0.01 0.01 0.01 0.00 0.00 0.00 0.00 0.00 0.00 0.00 0.00 0.00 0.00 0.00 0.01 0.00 0.00 0.01 0.00 0.00 0.00 0.00 0.01 0.01 0.01 0.02 0.02 0.01 0.01 0.01 0.01 0.01 0.02 0.03 0.03 0.03 0.03 0.02 0.01
0.01 0.00 0.00 0.00 0.01 0.01 0.01 0.01 0.00 0.00 0.01 0.00 0.00 0.00 0.00 0.00 0.00 0.00 0.00 0.00 0.01 0.00 0.00 0.01 0.00 0.00 0.00 0.01 0.01 0.01 0.02 0.02 0.01 0.01 0.01 0.01 0.01 0.01 0.01 0.02 0.03 0.03 0.03 0.02
0.00 0.00 0.00 0.00 0.01 0.01 0.01 0.01 0.01 0.01 0.01 0.00 0.00 0.00 0.00 0.00 0.00 0.00 0.00 0.00 0.00 0.00 0.00 0.00 0.00 0.00 0.00 0.00 0.01 0.01 0.01 0.01 0.01 0.01 0.01 0.02 0.02 0.01 0.01 0.01 0.03 0.04 0.03 0.03
0.00 0.00 0.00 0.01 0.00 0.01 0.00 0.01 0.01 0.01 0.00 0.00 0.00 0.00 0.00 0.00 0.00 0.00 0.00 0.00 0.00 0.00 0.00 0.00 0.00 0.00 0.01 0.01 0.01 0.01 0.00 0.01 0.01 0.01 0.01 0.02 0.02 0.02 0.01 0.02 0.02 0.03 0.04 0.02
0.00 0.01 0.01 0.01 0.01 0.00 0.00 0.00 0.00 0.00 0.00 0.00 0.00 0.00 0.00 0.00 0.00 0.00 0.01 0.00 0.00 0.00 0.00 0.00 0.00 0.00 0.00 0.01 0.01 0.01 0.00 0.01 0.01 0.01 0.01 0.02 0.02 0.01 0.01 0.01 0.02 0.02 0.04 0.03
0.00 0.00 0.01 0.01 0.00 0.00 0.00 0.00 0.00 0.00 0.00 0.00 0.00 0.00 0.00 0.00 0.00 0.00 0.01 0.01 0.00 0.00 0.00 0.00 0.00 0.00 0.00 0.00 0.01 0.01 0.01 0.01 0.01 0.01 0.01 0.01 0.01 0.01 0.01 0.01 0.01 0.02 0.03 0.03
0.00 0.00 0.01 0.00 0.00 0.00 0.00 0.00 0.00 0.00 0.00 0.00 0.00 0.00 0.00 0.00 0.00 0.00 0.00 0.01 0.01 0.01 0.01 0.01 0.01 0.01 0.00 0.00 0.00 0.01 0.01 0.00 0.00 0.01 0.01 0.01 0.01 0.01 0.01 0.01 0.01 0.01 0.02 0.03
0.01 0.01 0.01 0.01 0.01 0.01 0.01 0.01 0.01 0.01 0.01 0.00 0.00 0.01 0.01 0.01 0.01 0.01 0.01 0.01 0.01 0.01 0.01 0.02 0.02 0.01 0.01 0.00 0.00 0.00 0.00 0.00 0.00 0.01 0.00 0.01 0.01 0.01 0.01 0.01 0.01 0.02 0.02 0.03
MSLP
1019.21 1020.14 1020.99 1021.73 1022.35 1022.85 1023.25 1023.56 1023.81 1023.98 1024.09 1024.12 1024.06 1023.91 1023.68 1023.37 1023.02 1022.66 1022.34 1022.07 1021.89 1021.79 1021.77 1021.78 1021.80 1021.81 1021.78 1021.72 1021.63 1021.54 1021.47 1021.47 1021.54 1021.68 1021.89 1022.12 1022.34 1022.51 1022.58 1022.56 1022.43 1022.24 1022.01 1021.79
1020.19 1021.00 1021.71 1022.30 1022.79 1023.19 1023.54 1023.84 1024.10 1024.31 1024.45 1024.48 1024.41 1024.20 1023.89 1023.50 1023.07 1022.67 1022.33 1022.09 1021.97 1021.95 1022.00 1022.09 1022.16 1022.19 1022.15 1022.05 1021.93 1021.81 1021.74 1021.75 1021.88 1022.10 1022.39 1022.71 1023.01 1023.22 1023.32 1023.29 1023.15 1022.92 1022.65 1022.41
1020.93 1021.61 1022.17 1022.62 1023.01 1023.35 1023.68 1024.00 1024.30 1024.56 1024.72 1024.77 1024.66 1024.39 1024.00 1023.51 1023.01 1022.56 1022.21 1022.00 1021.94 1022.01 1022.16 1022.33 1022.46 1022.51 1022.48 1022.36 1022.21 1022.07 1022.00 1022.04 1022.21 1022.50 1022.87 1023.27 1023.63 1023.89 1024.01 1023.99 1023.84 1023.59 1023.31 1023.05
1021.41 1021.95 1022.37 1022.72 1023.03 1023.35 1023.70 1024.07 1024.44 1024.75 1024.95 1024.99 1024.84 1024.50 1024.01 1023.42 1022.83 1022.33 1021.97 1021.79 1021.80 1021.95 1022.20 1022.46 1022.66 1022.76 1022.75 1022.64 1022.48 1022.33 1022.26 1022.32 1022.53 1022.87 1023.31 1023.77 1024.18 1024.49 1024.64 1024.64 1024.49 1024.25 1023.98 1023.73
1021.65 1022.05 1022.35 1022.62 1022.90 1023.23 1023.64 1024.09 1024.54 1024.91 1025.15 1025.18 1024.97 1024.54 1023.94 1023.24 1022.56 1021.99 1021.61 1021.46 1021.53 1021.77 1022.12 1022.48 1022.76 1022.93 1022.96 1022.87 1022.72 1022.58 1022.53 1022.61 1022.85 1023.23 1023.71 1024.21 1024.67 1025.01 1025.20 1025.22 1025.10 1024.89 1024.65 1024.42
1021.70 1021.96 1022.18 1022.39 1022.67 1023.05 1023.53 1024.08 1024.62 1025.06 1025.32 1025.32 1025.06 1024.53 1023.80 1022.99 1022.21 1021.58 1021.17 1021.04 1021.16 1021.49 1021.93 1022.39 1022.77 1023.01 1023.10 1023.06 1022.94 1022.83 1022.79 1022.89 1023.15 1023.56 1024.06 1024.60 1025.09 1025.46 1025.68 1025.75 1025.67 1025.50 1025.30 1025.12
1021.60 1021.76 1021.90 1022.10 1022.41 1022.85 1023.42 1024.06 1024.68 1025.17 1025.44 1025.42 1025.08 1024.45 1023.62 1022.70 1021.82 1021.13 1020.70 1020.58 1020.74 1021.14 1021.67 1022.22 1022.70 1023.03 1023.19 1023.21 1023.15 1023.07 1023.06 1023.18 1023.45 1023.87 1024.38 1024.93 1025.44 1025.84 1026.10 1026.20 1026.18 1026.06 1025.92 1025.79
1021.42 1021.50 1021.60 1021.80 1022.14 1022.65 1023.30 1024.02 1024.69 1025.21 1025.48 1025.41 1025.01 1024.30 1023.37 1022.36 1021.42 1020.68 1020.23 1020.12 1020.33 1020.78 1021.38 1022.02 1022.58 1023.00 1023.24 1023.33 1023.32 1023.29 1023.31 1023.46 1023.74 1024.16 1024.67 1025.22 1025.74 1026.16 1026.45 1026.60 1026.62 1026.57 1026.48 1026.42
1021.20 1021.23 1021.32 1021.53 1021.91 1022.48 1023.17 1023.93 1024.63 1025.14 1025.38 1025.27 1024.80 1024.03 1023.04 1021.99 1021.02 1020.26 1019.81 1019.72 1019.95 1020.45 1021.11 1021.81 1022.44 1022.93 1023.25 1023.41 1023.47 1023.49 1023.56 1023.72 1024.01 1024.42 1024.93 1025.47 1025.98 1026.42 1026.73 1026.91 1026.99 1026.99 1026.96 1026.95
1020.94 1020.97 1021.07 1021.31 1021.72 1022.31 1023.02 1023.77 1024.44 1024.92 1025.10 1024.94 1024.43 1023.62 1022.62 1021.56 1020.60 1019.86 1019.45 1019.38 1019.64 1020.17 1020.86 1021.60 1022.28 1022.82 1023.21 1023.45 1023.57 1023.65 1023.76 1023.95 1024.24 1024.65 1025.14 1025.66 1026.17 1026.60 1026.94 1027.15 1027.27 1027.32 1027.34 1027.37
1020.67 1020.73 1020.86 1021.13 1021.56 1022.14 1022.81 1023.50 1024.10 1024.49 1024.60 1024.39 1023.85 1023.04 1022.07 1021.06 1020.16 1019.49 1019.12 1019.10 1019.39 1019.93 1020.63 1021.38 1022.09 1022.67 1023.11 1023.41 1023.60 1023.74 1023.90 1024.12 1024.42 1024.83 1025.30 1025.80 1026.29 1026.72 1027.06 1027.31 1027.46 1027.55 1027.61 1027.67
1020.39 1020.51 1020.70 1020.99 1021.41 1021.94 1022.53 1023.11 1023.58 1023.86 1023.88 1023.61 1023.06 1022.28 1021.38 1020.47 1019.68 1019.10 1018.82 1018.84 1019.16 1019.70 1020.39 1021.13 1021.83 1022.44 1022.91 1023.26 1023.52 1023.73 1023.94 1024.20 1024.52 1024.92 1025.38 1025.86 1026.34 1026.76 1027.11 1027.37 1027.56 1027.68 1027.78 1027.87
1020.12 1020.32 1020.57 1020.88 1021.27 1021.71 1022.18 1022.60 1022.92 1023.05 1022.96 1022.63 1022.08 1021.36 1020.56 1019.78 1019.13 1018.68 1018.48 1018.56 1018.90 1019.43 1020.09 1020.79 1021.47 1022.08 1022.58 1022.98 1023.30 1023.57 1023.85 1024.15 1024.51 1024.91 1025.36 1025.83 1026.29 1026.70 1027.06 1027.34 1027.56 1027.73 1027.86 1027.97
1019.88 1020.18 1020.48 1020.79 1021.12 1021.45 1021.76 1022.00 1022.12 1022.09 1021.88 1021.50 1020.96 1020.31 1019.63 1019.01 1018.50 1018.18 1018.08 1018.21 1018.55 1019.06 1019.67 1020.33 1020.97 1021.56 1022.08 1022.52 1022.90 1023.26 1023.60 1023.96 1024.35 1024.78 1025.22 1025.68 1026.13 1026.54 1026.91 1027.22 1027.48 1027.68 1027.86 1028.01
1019.74 1020.11 1020.44 1020.73 1020.97 1021.16 1021.28 1021.31 1021.24 1021.03 1020.71 1020.27 1019.74 1019.18 1018.63 1018.15 1017.79 1017.60 1017.59 1017.76 1018.09 1018.55 1019.10 1019.70 1020.29 1020.86 1021.39 1021.88 1022.33 1022.76 1023.18 1023.60 1024.04 1024.49 1024.94 1025.40 1025.85 1026.26 1026.65 1026.99 1027.29 1027.56 1027.78 1027.98
1019.71 1020.12 1020.45 1020.68 1020.82 1020.84 1020.77 1020.59 1020.31 1019.94 1019.50 1019.01 1018.50 1018.02 1017.58 1017.24 1017.02 1016.93 1016.98 1017.18 1017.49 1017.90 1018.38 1018.90 1019.45 1019.99 1020.53 1021.06 1021.58 1022.08 1022.58 1023.07 1023.56 1024.04 1024.51 1024.98 1025.42 1025.86 1026.26 1026.65 1027.00 1027.33 1027.62 1027.87
1019.81 1020.21 1020.49 1020.63 1020.63 1020.48 1020.21 1019.82 1019.36 1018.84 1018.30 1017.78 1017.29 1016.87 1016.54 1016.31 1016.19 1016.19 1016.28 1016.48 1016.75 1017.10 1017.50 1017.96 1018.45 1018.97 1019.52 1020.09 1020.67 1021.24 1021.82 1022.38 1022.92 1023.43 1023.93 1024.40 1024.86 1025.31 1025.75 1026.17 1026.59 1026.98 1027.34 1027.66
1020.00 1020.34 1020.52 1020.54 1020.37 1020.05 1019.59 1019.03 1018.40 1017.77 1017.16 1016.60 1016.14 1015.78 1015.53 1015.39 1015.35 1015.40 1015.51 1015.69 1015.91 1016.19 1016.52 1016.91 1017.35 1017.85 1018.41 1019.01 1019.64 1020.28 1020.92 1021.54 1022.12 1022.67 1023.19 1023.68 1024.15 1024.62 1025.08 1025.55 1026.02 1026.47 1026.90 1027.28
1020.21 1020.42 1020.47 1020.33 1020.00 1019.51 1018.89 1018.18 1017.44 1016.72 1016.06 1015.51 1015.07 1014.77 1014.58 1014.51 1014.52 1014.59 1014.70 1014.85 1015.02 1015.23 1015.49 1015.81 1016.21 1016.68 1017.24 1017.86 1018.53 1019.22 1019.91 1020.58 1021.20 1021.78 1022.31 1022.82 1023.30 1023.78 1024.27 1024.78 1025.29 1025.79 1026.27 1026.71
1020.32 1020.37 1020.25 1019.94 1019.46 1018.82 1018.08 1017.27 1016.46 1015.69 1015.03 1014.49 1014.09 1013.83 1013.70 1013.67 1013.71 1013.79 1013.89 1014.00 1014.12 1014.27 1014.46 1014.73 1015.08 1015.53 1016.07 1016.70 1017.39 1018.11 1018.83 1019.53 1020.17 1020.77 1021.32 1021.83 1022.33 1022.82 1023.33 1023.85 1024.39 1024.93 1025.44 1025.91
1020.22 1020.10 1019.80 1019.34 1018.72 1017.97 1017.14 1016.28 1015.44 1014.68 1014.04 1013.54 1013.19 1012.98 1012.89 1012.89 1012.94 1013.02 1013.10 1013.17 1013.25 1013.34 1013.48 1013.70 1014.00 1014.42 1014.94 1015.55 1016.24 1016.96 1017.69 1018.39 1019.05 1019.66 1020.22 1020.74 1021.24 1021.74 1022.26 1022.79 1023.34 1023.89 1024.42 1024.90
1019.84 1019.54 1019.09 1018.50 1017.78 1016.97 1016.10 1015.23 1014.42 1013.70 1013.10 1012.65 1012.35 1012.19 1012.14 1012.16 1012.22 1012.28 1012.34 1012.39 1012.43 1012.48 1012.57 1012.74 1013.00 1013.38 1013.86 1014.44 1015.09 1015.79 1016.50 1017.20 1017.85 1018.46 1019.02 1019.55 1020.06 1020.56 1021.08 1021.61 1022.15 1022.70 1023.21 1023.70
1019.14 1018.69 1018.12 1017.44 1016.67 1015.83 1014.98 1014.16 1013.40 1012.74 1012.22 1011.84 1011.59 1011.47 1011.44 1011.48 1011.54 1011.59 1011.64 1011.66 1011.67 1011.69 1011.75 1011.87 1012.09 1012.41 1012.83 1013.35 1013.95 1014.60 1015.27 1015.94 1016.58 1017.18 1017.74 1018.28 1018.80 1019.31 1019.82 1020.35 1020.87 1021.39 1021.88 1022.34
1018.15 1017.60 1016.95 1016.23 1015.45 1014.65 1013.85 1013.10 1012.43 1011.86 1011.42 1011.10 1010.90 1010.82 1010.80 1010.84 1010.90 1010.95 1010.98 1010.99 1010.98 1010.98 1011.00 1011.09 1011.25 1011.50 1011.85 1012.30 1012.82 1013.39 1014.00 1014.62 1015.23 1015.82 1016.39 1016.93 1017.46 1017.99 1018.50 1019.02 1019.52 1020.01 1020.47 1020.89
1016.95 1016.34 1015.67 1014.95 1014.22 1013.48 1012.77 1012.12 1011.55 1011.08 1010.71 1010.46 1010.30 1010.23 1010.23 1010.26 1010.31 1010.35 1010.37 1010.37 1010.35 1010.33 1010.33 1010.37 1010.47 1010.65 1010.91 1011.26 1011.69 1012.17 1012.70 1013.26 1013.83 1014.40 1014.97 1015.53 1016.07 1016.61 1017.13 1017.64 1018.13 1018.58 1019.01 1019.39
1015.65 1015.03 1014.37 1013.71 1013.05 1012.41 1011.82 1011.28 1010.82 1010.44 1010.14 1009.93 1009.80 1009.74 1009.72 1009.74 1009.78 1009.80 1009.82 1009.81 1009.78 1009.74 1009.71 1009.71 1009.75 1009.85 1010.01 1010.25 1010.57 1010.95 1011.39 1011.87 1012.40 1012.94 1013.50 1014.07 1014.63 1015.19 1015.72 1016.23 1016.70 1017.13 1017.52 1017.88
Thickness
5727 5713 5705 5710 5713 5713 5708 5701 5696 5700 5711 5706 5700 5699 5704 5709 5709 5708 5707 5708 5709 5711 5715 5717 5717 5717 5717 5716 5715 5714 5713 5711 5710 5707 5704 5703 5701 5701 5701 5700 5700 5699 5698 5697
5712 5707 5718 5721 5719 5714 5707 5698 5695 5700 5709 5704 5697 5697 5704 5707 5708 5709 5708 5707 5708 5710 5712 5713 5714 5714 5714 5713 5713 5712 5711 5709 5708 5706 5704 5702 5700 5698 5697 5697 5697 5696 5695 5694
5710 5715 5725 5719 5713 5707 5704 5699 5697 5696 5700 5700 5695 5690 5697 5705 5708 5710 5710 5709 5709 5710 5709 5710 5710 5711 5711 5711 5710 5711 5709 5708 5706 5705 5703 5700 5697 5695 5694 5693 5692 5692 5692 5691
5713 5721 5720 5713 5709 5708 5697 5708 5705 5699 5688 5679 5687 5671 5689 5698 5701 5705 5707 5707 5707 5709 5710 5709 5709 5708 5708 5709 5710 5709 5707 5706 5704 5703 5700 5697 5693 5690 5689 5689 5689 5689 5688 5687
5711 5718 5716 5710 5713 5713 5706 5710 5704 5697 5687 5678 5679 5671 5680 5694 5694 5700 5705 5707 5708 5709 5709 5709 5708 5708 5708 5708 5707 5706 5705 5703 5702 5700 5698 5695 5692 5689 5688 5687 5686 5685 5684 5683
5716 5723 5721 5718 5719 5717 5711 5703 5695 5684 5677 5667 5676 5670 5675 5687 5696 5702 5707 5708 5709 5710 5709 5708 5708 5707 5706 5705 5704 5703 5701 5700 5699 5697 5695 5693 5690 5687 5685 5683 5682 5681 5680 5679
5705 5713 5720 5722 5710 5708 5703 5685 5667 5664 5658 5662 5678 5673 5679 5700 5705 5707 5707 5708 5709 5709 5707 5705 5704 5703 5703 5702 5701 5700 5698 5696 5695 5694 5692 5690 5688 5686 5684 5681 5679 5677 5676 5675
5689 5689 5709 5715 5709 5699 5695 5687 5666 5657 5654 5660 5674 5671 5688 5706 5710 5711 5711 5710 5708 5707 5705 5704 5704 5703 5701 5700 5699 5697 5695 5693 5692 5690 5689 5688 5686 5684 5682 5680 5678 5676 5674 5673
5687 5689 5710 5715 5715 5706 5691 5682 5683 5666 5663 5657 5665 5678 5694 5706 5706 5707 5707 5706 5705 5705 5705 5703 5703 5702 5700 5699 5698 5696 5693 5691 5689 5688 5686 5684 5683 5681 5679 5677 5676 5674 5673 5671
5698 5689 5702 5708 5711 5705 5699 5686 5671 5663 5654 5650 5661 5669 5676 5693 5697 5700 5701 5702 5703 5703 5702 5702 5701 5700 5699 5698 5696 5694 5692 5690 5688 5686 5684 5682 5680 5678 5677 5675 5673 5671 5670 5668
5700 5687 5689 5696 5693 5690 5688 5681 5670 5660 5658 5649 5649 5665 5693 5694 5698 5698 5700 5701 5701 5701 5701 5699 5699 5698 5697 5695 5692 5690 5688 5686 5684 5683 5681 5679 5677 5675 5673 5672 5670 5668 5666 5664
5692 5679 5673 5684 5697 5699 5692 5684 5671 5660 5656 5651 5647 5663 5701 5699 5699 5699 5698 5699 5700 5701 5700 5698 5696 5694 5693 5691 5689 5687 5685 5683 5681 5680 5678 5676 5673 5671 5669 5668 5666 5665 5663 5661
5689 5676 5664 5668 5677 5686 5685 5682 5675 5665 5653 5644 5645 5665 5697 5695 5696 5696 5696 5696 5696 5696 5695 5693 5692 5690 5689 5687 5686 5684 5682 5680 5678 5676 5673 5671 5669 5667 5665 5664 5663 5661 5659 5656
5691 5673 5666 5662 5667 5675 5677 5679 5674 5664 5650 5647 5653 5667 5684 5687 5688 5691 5692 5692 5692 5691 5690 5688 5686 5685 5685 5684 5682 5680 5678 5676 5674 5672 5669 5666 5664 5663 5661 5660 5658 5656 5654 5652
5685 5670 5671 5673 5677 5677 5677 5677 5673 5666 5662 5655 5664 5668 5678 5683 5685 5687 5689 5688 5687 5686 5685 5684 5683 5681 5680 5679 5677 5676 5674 5672 5669 5666 5665 5662 5661 5659 5657 5656 5654 5652 5649 5647
5674 5669 5669 5668 5674 5673 5672 5674 5673 5670 5668 5664 5666 5668 5681 5682 5682 5683 5683 5683 5682 5681 5681 5680 5679 5678 5676 5674 5673 5671 5669 5666 5664 5661 5660 5658 5656 5653 5652 5650 5648 5646 5644 5641
5663 5661 5656 5652 5662 5665 5659 5671 5671 5669 5670 5667 5662 5669 5677 5676 5677 5677 5678 5678 5677 5677 5677 5676 5674 5674 5673 5671 5669 5666 5664 5662 5659 5656 5654 5652 5650 5648 5646 5645 5642 5640 5638 5635
5658 5652 5644 5643 5651 5646 5662 5677 5676 5670 5669 5669 5669 5670 5672 5673 5674 5675 5675 5673 5673 5673 5672 5671 5670 5669 5668 5667 5664 5662 5659 5656 5653 5651 5649 5647 5645 5642 5640 5637 5636 5634 5631 5629
5659 5650 5638 5633 5635 5643 5660 5671 5669 5664 5664 5669 5665 5667 5668 5669 5669 5668 5672 5670 5670 5670 5669 5668 5667 5665 5663 5661 5659 5655 5652 5649 5647 5645 5643 5642 5639 5637 5634 5631 5630 5628 5626 5624
5648 5646 5634 5626 5630 5630 5653 5669 5672 5665 5653 5665 5663 5661 5661 5660 5651 5658 5667 5666 5665 5664 5664 5662 5661 5659 5656 5654 5652 5648 5645 5643 5641 5640 5638 5636 5634 5631 5629 5627 5624 5622 5620 5618
5635 5630 5625 5620 5621 5631 5651 5661 5663 5642 5645 5660 5659 5657 5655 5651 5653 5658 5661 5661 5660 5659 5658 5656 5654 5652 5650 5648 5645 5641 5639 5637 5637 5635 5632 5630 5628 5626 5624 5621 5619 5616 5614 5612
5627 5621 5617 5613 5613 5625 5652 5650 5643 5644 5653 5654 5653 5653 5650 5650 5652 5653 5653 5653 5653 5652 5651 5650 5647 5645 5643 5641 5638 5635 5633 5634 5631 5628 5626 5624 5622 5620 5619 5615 5612 5610 5607 5604
5623 5625 5622 5622 5628 5639 5643 5644 5647 5646 5645 5647 5646 5647 5646 5645 5644 5645 5645 5645 5645 5645 5644 5642 5640 5637 5635 5633 5632 5629 5629 5627 5624 5622 5620 5618 5615 5613 5611 5608 5606 5603 5601 5598
5621 5623 5619 5618 5627 5633 5636 5638 5640 5641 5640 5642 5642 5641 5641 5638 5638 5637 5636 5636 5636 5636 5636 5634 5632 5629 5627 5626 5625 5624 5623 5621 5618 5615 5612 5610 5608 5606 5604 5602 5600 5597 5595 5593
5616 5615 5611 5612 5620 5626 5631 5631 5633 5634 5635 5635 5635 5635 5634 5632 5631 5630 5629 5630 5629 5629 5628 5626 5624 5622 5620 5619 5618 5618 5616 5614 5611 5608 5606 5604 5602 5599 5597 5595 5593 5592 5591 5589
5608 5609 5606 5609 5617 5615 5620 5626 5627 5626 5626 5627 5626 5627 5627 5626 5624 5624 5623 5623 5622 5621 5619 5618 5616 5614 5613 5612 5611 5610 5609 5607 5604 5601 5599 5596 5594 5592 5589 5587 5585 5585 5584 5583